This is the latest recevied weather packets stored in our database for station/object KC1TEM-13. If no packets are shown the sender has not sent any weather packets the latest 1 day(s).
| Time | Temp. | Humidity | Pressure | Rain* | Wind** | Luminosity | Snow |
|---|---|---|---|---|---|---|---|
| 1778038653 | 18.89° C | 54% | 1009.5 hPa | 0 mm | 1.79 m/s, 180° | 0 W/m² | - |
| 1778038350 | 18.89° C | 54% | 1009.5 hPa | 0 mm | 0 m/s | 0 W/m² | - |
| 1778038047 | 18.89° C | 54% | 1009.3 hPa | 0 mm | 0.89 m/s, 229° | 0 W/m² | - |
| 1778037743 | 18.89° C | 54% | 1009.6 hPa | 0 mm | 0 m/s | 0 W/m² | - |
| 1778037440 | 19.44° C | 53% | 1009.7 hPa | 0 mm | 0.89 m/s, 232° | 0 W/m² | - |
| 1778037138 | 19.44° C | 53% | 1009.7 hPa | 0 mm | 1.34 m/s, 193° | 0 W/m² | - |
| 1778036836 | 19.44° C | 53% | 1009.7 hPa | 0 mm | 1.34 m/s, 206° | 0 W/m² | - |
| 1778036533 | 19.44° C | 53% | 1009.4 hPa | 0 mm | 1.79 m/s, 202° | 0 W/m² | - |
| 1778036229 | 19.44° C | 52% | 1009.4 hPa | 0 mm | 0 m/s | 0 W/m² | - |
| 1778035926 | 20° C | 52% | 1009.6 hPa | 0 mm | 0.89 m/s, 222° | 0 W/m² | - |
| 1778035623 | 20° C | 52% | 1009.4 hPa | 0 mm | 0.45 m/s, 183° | 0 W/m² | - |
| 1778035319 | 20° C | 52% | 1009.4 hPa | 0 mm | 1.34 m/s, 213° | 0 W/m² | - |
| 1778035016 | 20° C | 52% | 1009.4 hPa | 0 mm | 0.89 m/s, 150° | 0 W/m² | - |
| 1778034713 | 20° C | 52% | 1009.4 hPa | 0 mm | 0.89 m/s, 206° | 0 W/m² | - |
| 1778034410 | 20° C | 51% | 1009.4 hPa | 0 mm | 0.45 m/s, 230° | 0 W/m² | - |
| 1778034108 | 20.56° C | 51% | 1009.5 hPa | 0 mm | 1.34 m/s, 136° | 0 W/m² | - |
| 1778033806 | 20.56° C | 50% | 1009.4 hPa | 0 mm | 0.45 m/s, 213° | 0 W/m² | - |
| 1778033502 | 20.56° C | 49% | 1009.4 hPa | 0 mm | 1.79 m/s, 177° | 0 W/m² | - |
| 1778033199 | 20.56° C | 49% | 1009.4 hPa | 0 mm | 0.89 m/s, 177° | 0 W/m² | - |
| 1778032897 | 21.11° C | 49% | 1009.4 hPa | 0 mm | 1.34 m/s, 160° | 0 W/m² | - |
| 1778032594 | 21.11° C | 48% | 1009.5 hPa | 0 mm | 0.89 m/s, 278° | 0 W/m² | - |
| 1778032291 | 21.11° C | 48% | 1009.6 hPa | 0 mm | 1.34 m/s, 198° | 0 W/m² | - |
| 1778031989 | 21.11° C | 48% | 1009.6 hPa | 0 mm | 1.79 m/s, 172° | 0 W/m² | - |
| 1778031684 | 21.11° C | 48% | 1009.6 hPa | 0 mm | 0.89 m/s, 181° | 0 W/m² | - |
| 1778031383 | 21.11° C | 48% | 1009.6 hPa | 0 mm | 0.89 m/s, 179° | 0 W/m² | - |
* Rain latest hour (hover to see other rain measurements)
** Current wind speed in m/s (hover to see current wind gust speed)